Columbia / Mount Pleasant, TN

11:07 PM CDT on October 23, 2017 (GMT -0500)
Maury County

Weather History for KMRC - April, 2014

Change the Weather History Date:

Wednesday, April 16, 2014

  Actual Average (KBNA) Record (KBNA)
Temperature  
Mean Temperature 45 °F -  
Max Temperature 62 °F 71 °F 88 °F (1955)
Min Temperature 28 °F 46 °F 28 °F (1988)
Degree Days  
Heating Degree Days 20    
Moisture  
Dew Point 32 °F    
Average Humidity 67    
Maximum Humidity 100    
Minimum Humidity 37    
Precipitation  
Precipitation 0.00 in - - ()
Sea Level Pressure  
Sea Level Pressure 30.23 in    
Wind  
Wind Speed 3 mph (East)    
Max Wind Speed 15 mph    
Max Gust Speed -    
Visibility 10 miles    
Events      
Averages and records for this station are not official NWS values.
T = Trace of Precipitation, MM = Missing Value Source: NWS Daily Summary

Daily Weather History Graph

Daily Weather History Graph

Search for Another Location

Airport or City:

Trip Planner

Search our weather history database for the weather conditions in past years. The results will help you decide how hot, cold, wet, or windy it might be!

Date:

Astronomy

Apr. 16, 2014 Rise Set
Actual Time 6:14 AM CDT 7:22 PM CDT
Civil Twilight 5:48 AM CDT 7:49 PM CDT
Nautical Twilight 5:17 AM CDT 8:20 PM CDT
Astronomical Twilight 4:44 AM CDT 8:52 PM CDT
Moon 9:02 PM CDT (4/16) 7:04 AM CDT (4/16)
Length of Visible Light 14h 00m
Length of Day
13h 07m
Full, 98% of the Moon is Illuminated
Apr 16
Full
Apr 22
Last Quarter
Apr 29
New
May 6
First Quarter
May 14
Full

Hourly Weather History & Observations

Time (CDT) Temp. Windchill Dew Point Humidity Pressure Visibility Wind Dir Wind Speed Gust Speed Precip Events Conditions
12:35 AM 33.8 °F - 28.4 °F 81% 30.26 in 10.0 mi Calm Calm - N/A   Clear
12:55 AM 30.2 °F - 28.4 °F 93% 30.26 in 10.0 mi Calm Calm - N/A   Clear
1:15 AM 30.2 °F - 28.4 °F 93% 30.26 in 10.0 mi Calm Calm - N/A   Clear
1:35 AM 30.2 °F - 28.4 °F 93% 30.25 in 10.0 mi Calm Calm - N/A   Clear
1:55 AM 30.2 °F - 28.4 °F 93% 30.25 in 10.0 mi Calm Calm - N/A   Clear
2:15 AM 30.2 °F - 28.4 °F 93% 30.25 in 10.0 mi Calm Calm - N/A   Clear
2:35 AM 30.2 °F - 28.4 °F 93% 30.25 in 10.0 mi Calm Calm - N/A   Clear
2:55 AM 28.4 °F - 26.6 °F 93% 30.25 in 10.0 mi Calm Calm - N/A   Clear
3:15 AM 28.4 °F - 26.6 °F 93% 30.26 in 10.0 mi Calm Calm - N/A   Clear
3:35 AM 28.4 °F - 28.4 °F 100% 30.26 in 10.0 mi Calm Calm - N/A   Clear
3:55 AM 28.4 °F - 28.4 °F 100% 30.25 in 10.0 mi Calm Calm - N/A   Clear
4:15 AM 28.4 °F - 28.4 °F 100% 30.24 in 10.0 mi Calm Calm - N/A   Clear
4:35 AM 28.4 °F - 28.4 °F 100% 30.25 in 10.0 mi Calm Calm - N/A   Clear
4:55 AM 28.4 °F - 26.6 °F 93% 30.25 in 10.0 mi Calm Calm - N/A   Clear
5:15 AM 28.4 °F - 26.6 °F 93% 30.24 in 10.0 mi Calm Calm - N/A   Clear
5:35 AM 28.4 °F - 26.6 °F 93% 30.25 in 10.0 mi Calm Calm - N/A   Clear
5:55 AM 28.4 °F 24.6 °F 26.6 °F 93% 30.26 in 10.0 mi NE 3.5 mph - N/A   Clear
6:15 AM 28.4 °F - 26.6 °F 93% 30.25 in 10.0 mi Calm Calm - N/A   Clear
6:35 AM 30.2 °F - 26.6 °F 86% 30.26 in 10.0 mi Calm Calm - N/A   Clear
6:55 AM 30.2 °F 26.7 °F 26.6 °F 86% 30.27 in 10.0 mi ENE 3.5 mph - N/A   Clear
7:15 AM 30.2 °F 26.7 °F 28.4 °F 93% 30.27 in 10.0 mi ENE 3.5 mph - N/A   Clear
7:35 AM 33.8 °F - 28.4 °F 81% 30.28 in 10.0 mi Calm Calm - N/A   Clear
7:55 AM 35.6 °F 32.8 °F 28.4 °F 75% 30.29 in 10.0 mi NE 3.5 mph - N/A   Clear
8:15 AM 37.4 °F 28.9 °F 30.2 °F 75% 30.29 in 10.0 mi East 13.8 mph - N/A   Clear
8:35 AM 39.2 °F 31.2 °F 28.4 °F 65% 30.30 in 9.0 mi East 13.8 mph - N/A   Clear
8:55 AM 39.2 °F 30.8 °F 28.4 °F 65% 30.30 in 10.0 mi ENE 15.0 mph - N/A   Clear
9:15 AM 42.8 °F 36.2 °F 28.4 °F 57% 30.30 in 10.0 mi ENE 12.7 mph - N/A   Clear
9:35 AM 42.8 °F 36.6 °F 28.4 °F 57% 30.30 in 10.0 mi ENE 11.5 mph - N/A   Clear
9:55 AM 44.6 °F 38.4 °F 28.4 °F 53% 30.31 in 10.0 mi East 12.7 mph - N/A   Clear
10:15 AM 44.6 °F 39.7 °F 28.4 °F 53% 30.31 in 10.0 mi ENE 9.2 mph - N/A   Clear
10:35 AM 46.4 °F 40.1 °F 28.4 °F 50% 30.31 in 10.0 mi ENE 15.0 mph - N/A   Clear
10:55 AM 48.2 °F - 30.2 °F 50% 30.30 in 10.0 mi East 8.1 mph - N/A   Clear
11:15 AM 48.2 °F - 30.2 °F 50% 30.30 in 9.0 mi NE 6.9 mph - N/A   Clear
11:35 AM 50.0 °F - 30.2 °F 47% 30.30 in 10.0 mi East 8.1 mph - N/A   Clear
11:55 AM 51.8 °F - 32.0 °F 47% 30.29 in 10.0 mi ENE 9.2 mph - N/A   Clear
12:15 PM 51.8 °F - 33.8 °F 50% 30.27 in 10.0 mi NE 6.9 mph - N/A   Clear
12:35 PM 51.8 °F - 33.8 °F 50% 30.26 in 10.0 mi NNE 6.9 mph - N/A   Clear
12:55 PM 53.6 °F - 33.8 °F 47% 30.25 in 10.0 mi Variable 6.9 mph - N/A   Clear
1:15 PM 53.6 °F - 33.8 °F 47% 30.23 in 10.0 mi SE 5.8 mph - N/A   Clear
1:35 PM 55.4 °F - 35.6 °F 47% 30.22 in 10.0 mi ENE 6.9 mph - N/A   Clear
1:55 PM 55.4 °F - 33.8 °F 44% 30.21 in 10.0 mi ESE 9.2 mph - N/A   Clear
2:15 PM 57.2 °F - 35.6 °F 44% 30.20 in 10.0 mi East 8.1 mph - N/A   Clear
2:35 PM 57.2 °F - 35.6 °F 44% 30.19 in 10.0 mi SE 6.9 mph - N/A   Clear
2:55 PM 59.0 °F - 35.6 °F 42% 30.18 in 10.0 mi Variable 5.8 mph - N/A   Clear
3:15 PM 59.0 °F - 35.6 °F 42% 30.17 in 10.0 mi Calm Calm - N/A   Clear
3:35 PM 60.8 °F - 35.6 °F 39% 30.17 in 10.0 mi Calm Calm - N/A   Clear
3:55 PM 60.8 °F - 37.4 °F 42% 30.16 in 10.0 mi East 10.4 mph - N/A   Clear
4:15 PM 60.8 °F - 35.6 °F 39% 30.15 in 10.0 mi SE 4.6 mph - N/A   Clear
4:35 PM 62.6 °F - 35.6 °F 37% 30.15 in 10.0 mi ESE 4.6 mph - N/A   Clear
4:55 PM 62.6 °F - 35.6 °F 37% 30.15 in 10.0 mi ESE 5.8 mph - N/A   Clear
5:15 PM 62.6 °F - 35.6 °F 37% 30.14 in 10.0 mi SE 6.9 mph - N/A   Clear
5:35 PM 62.6 °F - 35.6 °F 37% 30.14 in 10.0 mi ESE 5.8 mph - N/A   Clear
5:55 PM 62.6 °F - 35.6 °F 37% 30.14 in 10.0 mi ESE 4.6 mph - N/A   Clear
6:35 PM 60.8 °F - 35.6 °F 39% 30.14 in 10.0 mi South 4.6 mph - N/A   Clear
6:55 PM 57.2 °F - 35.6 °F 44% 30.14 in 10.0 mi Calm Calm - N/A   Clear
7:15 PM 57.2 °F - 35.6 °F 44% 30.14 in 10.0 mi Calm Calm - N/A   Clear
7:35 PM 53.6 °F - 37.4 °F 54% 30.15 in 10.0 mi Calm Calm - N/A   Clear
7:55 PM 51.8 °F - 35.6 °F 54% 30.15 in 10.0 mi Calm Calm - N/A   Clear
8:15 PM 51.8 °F - 35.6 °F 54% 30.16 in 10.0 mi Calm Calm - N/A   Clear
8:35 PM 48.2 °F - 37.4 °F 66% 30.16 in 10.0 mi SE 4.6 mph - N/A   Clear
8:55 PM 48.2 °F - 37.4 °F 66% 30.17 in 10.0 mi SE 3.5 mph - N/A   Clear
9:15 PM 46.4 °F - 39.2 °F 76% 30.17 in 10.0 mi Calm Calm - N/A   Clear
9:35 PM 46.4 °F 44.3 °F 37.4 °F 71% 30.17 in 10.0 mi SE 4.6 mph - N/A   Clear
9:55 PM 46.4 °F - 37.4 °F 71% 30.18 in 10.0 mi Calm Calm - N/A   Clear
10:15 PM 44.6 °F - 39.2 °F 81% 30.18 in 10.0 mi Calm Calm - N/A   Clear
10:35 PM 44.6 °F - 37.4 °F 76% 30.19 in 10.0 mi Calm Calm - N/A   Clear
10:55 PM 42.8 °F - 37.4 °F 81% 30.19 in 10.0 mi Calm Calm - N/A   Clear
11:15 PM 42.8 °F - 39.2 °F 87% 30.20 in 10.0 mi Calm Calm - N/A   Clear
11:35 PM 42.8 °F - 39.2 °F 87% 30.20 in 10.0 mi Calm Calm - N/A   Clear
11:55 PM 41.0 °F - 37.4 °F 87% 30.21 in 10.0 mi Calm Calm - N/A   Clear